RADUGA 6 1 11708U 80016A 21063.64105324 -.00000348 00000-0 00000-0 0 9995 2 11708 10.3122 307.7987 0001188 111.5620 81.0270 1.00258768102809 SL-12 R/B(2) 1 11728U 80016D 21063.84352781 -.00000075 00000-0 00000-0 0 9997 2 11728 11.8205 312.8510 0011344 247.3247 309.0405 0.97623199100727